GW5235 Weather Reports


time (UTC)temp
F
wind
direction
speed
knots
gust
knots
rain 1hr
in
rain 24hr
in
rain mn
in
humidity
%
barometer
mb
20260506104517 51 293 0.0 2.6 0.00 0.00 0.00 97 1021.0
20260506103538 51 0.0 0.0 0.00 0.00 0.00 97 1020.8
20260506102518 51 0 0.0 1.7 0.00 0.00 0.00 97 1020.8
20260506101526 51 0.0 0.0 0.00 0.00 0.00 97 1020.5
20260506100522 51 0.0 0.0 0.00 0.00 0.00 96 1020.5
20260506095517 51 0.0 0.0 0.00 0.00 0.00 94 1020.5
20260506094520 51 0.0 0.0 0.00 0.00 0.00 95 1020.5
20260506093555 51 0.0 0.0 0.00 0.00 0.00 95 1020.3
20260506092550 51 0.0 0.0 0.00 0.00 0.00 94 1020.3
20260506091531 52 0.0 0.0 0.00 0.00 0.00 94 1020.5
20260506090531 52 0.0 0.0 0.00 0.00 0.00 94 1020.5
20260506085532 53 0.0 0.0 0.00 0.00 0.00 94 1020.6
20260506084553 53 0.0 0.0 0.00 0.00 0.00 94 1020.6
20260506083533 53 0.0 0.0 0.00 0.01 0.00 94 1020.8
20260506082516 54 0.0 0.0 0.00 0.01 0.00 94 1021.0
20260506081530 54 0.0 0.0 0.00 0.01 0.00 94 1021.0
20260506080554 54 0.0 0.0 0.00 0.01 0.00 94 1020.9
20260506073524 54 338 0.9 2.6 0.00 0.03 0.00 94 1020.6
20260506072526 54 300 0.0 1.7 0.00 0.03 0.00 94 1020.3
20260506071526 54 2 0.9 2.6 0.00 0.03 0.00 94 1020.3
20260506070525 54 337 0.9 2.6 0.00 0.03 0.00 94 1020.2
20260506061531 55 0.0 0.0 0.00 0.03 0.03 94 1019.5
20260506060547 55 0.0 0.0 0.00 0.03 0.03 94 1019.5
20260506050526 55 0.0 0.0 0.00 0.03 0.03 92 1019.0
20260506044523 56 0.0 0.0 0.00 0.03 0.03 91 1018.8
20260506043519 56 0.0 0.0 0.00 0.03 0.03 89 1018.6
20260506042533 56 0.0 0.0 0.00 0.03 0.03 88 1018.5
20260506041516 57 0.0 0.0 0.00 0.03 0.03 87 1018.3
20260506040530 57 0.0 0.0 0.00 0.03 0.03 88 1018.3
20260506035526 58 0.0 0.0 0.00 0.03 0.03 88 1018.3
20260506034542 58 0.0 0.0 0.00 0.03 0.03 87 1018.3
20260506033523 59 0.0 0.0 0.00 0.03 0.03 85 1018.1
20260506032525 59 0.0 0.0 0.00 0.03 0.03 84 1017.8
20260506031525 60 0.0 0.0 0.00 0.03 0.03 84 1017.8
20260506030548 60 0.0 0.0 0.00 0.03 0.03 82 1017.7
20260506025610 61 0.0 0.0 0.00 0.03 0.03 81 1017.6
20260506024527 62 0.0 0.0 0.00 0.03 0.03 80 1017.6
20260506023524 62 0.0 0.0 0.00 0.03 0.03 80 1017.5
20260506022519 62 0.0 0.0 0.00 0.03 0.03 79 1017.3
20260506021532 63 0.0 0.0 0.00 0.03 0.03 78 1017.3
20260506020533 63 0.0 0.0 0.00 0.03 0.03 78 1017.3
20260506015532 63 340 0.9 3.5 0.00 0.03 0.03 77 1017.3
20260506014531 64 343 0.9 3.5 0.00 0.03 0.03 76 1017.3
20260506013553 64 335 1.7 3.5 0.00 0.03 0.03 75 1017.3
20260506012533 64 297 1.7 2.6 0.00 0.03 0.03 75 1017.3
20260506011516 66 315 0.0 0.9 0.00 0.03 0.03 74 1017.3
20260506010536 66 6 0.9 2.6 0.00 0.03 0.03 73 1017.4
20260506005517 66 338 0.0 0.9 0.00 0.03 0.03 74 1017.5
20260506004517 66 350 2.6 3.5 0.00 0.03 0.03 73 1017.6
20260506003525 66 352 0.9 4.3 0.00 0.03 0.03 73 1017.5
20260506002522 66 356 1.7 3.5 0.00 0.03 0.03 73 1017.3
20260506001517 66 330 0.9 3.5 0.00 0.03 0.03 74 1017.3
20260506000532 66 325 2.6 4.3 0.00 0.03 0.03 73 1017.3
20260505235526 67 316 1.7 4.3 0.00 0.03 0.03 72 1017.2
20260505234527 66 307 1.7 3.5 0.00 0.03 0.03 74 1017.1
20260505233529 66 325 1.7 2.6 0.00 0.03 0.03 74 1017.1
20260505232525 66 354 3.5 8.7 0.00 0.03 0.03 73 1017.1
20260505231527 66 317 1.7 3.5 0.00 0.03 0.03 74 1017.3
20260505230516 65 341 2.6 4.3 0.00 0.03 0.03 76 1017.3
20260505225537 65 349 0.9 3.5 0.00 0.03 0.03 75 1017.3
20260505224518 66 0 1.7 4.3 0.00 0.03 0.03 74 1017.3
20260505223518 66 318 0.9 3.5 0.00 0.03 0.03 73 1017.5
20260505222546 65 318 1.7 4.3 0.00 0.04 0.03 75 1017.5
20260505221542 64 330 2.6 3.5 0.00 0.04 0.03 76 1017.6
20260505220518 65 350 1.7 3.5 0.00 0.04 0.03 76 1017.6
20260505215521 64 292 0.9 3.5 0.00 0.04 0.03 77 1017.7
20260505214517 64 227 0.9 2.6 0.00 0.04 0.03 77 1017.8
20260505213520 65 342 2.6 4.3 0.00 0.04 0.03 74 1017.8
20260505212539 65 355 2.6 5.2 0.00 0.04 0.03 75 1017.8
20260505211540 66 338 0.9 2.6 0.00 0.04 0.03 74 1017.6
20260505210526 64 288 0.9 3.5 0.00 0.04 0.03 76 1017.7
20260505205522 64 325 2.6 4.3 0.00 0.04 0.03 77 1017.8
20260505204518 63 314 1.7 3.5 0.00 0.04 0.03 78 1018.1
20260505203527 63 281 1.7 5.2 0.00 0.04 0.03 78 1018.1
20260505202528 63 330 2.6 6.1 0.00 0.04 0.03 77 1018.0
20260505201525 63 323 1.7 3.5 0.00 0.04 0.03 78 1018.0
20260505200542 63 5 2.6 4.3 0.00 0.04 0.03 79 1018.1
20260505195521 62 345 1.7 4.3 0.00 0.04 0.03 80 1018.1
20260505194521 61 305 1.7 4.3 0.00 0.04 0.03 80 1018.1
20260505193538 63 325 3.5 5.2 0.00 0.04 0.03 77 1018.3
20260505192518 63 336 1.7 3.5 0.00 0.04 0.03 76 1018.1
20260505191541 62 355 1.7 4.3 0.00 0.05 0.03 77 1018.1
20260505190522 63 302 2.6 3.5 0.00 0.06 0.03 77 1018.1
20260505185528 62 296 0.9 2.6 0.00 0.07 0.03 78 1018.1
20260505184524 62 240 0.9 2.6 0.00 0.08 0.03 79 1018.0
20260505183520 61 261 0.9 3.5 0.00 0.08 0.03 80 1017.8
20260505182527 62 293 0.0 2.6 0.00 0.08 0.03 79 1017.8
20260505181528 61 290 0.9 2.6 0.00 0.08 0.03 78 1017.8
20260505180529 61 264 0.9 2.6 0.00 0.09 0.03 80 1017.8
20260505175526 60 0.0 0.0 0.00 0.09 0.03 80 1017.8
20260505174546 61 303 1.7 5.2 0.00 0.09 0.03 79 1017.8
20260505173528 60 265 0.9 3.5 0.00 0.09 0.03 80 1017.6
20260505172528 61 284 0.9 4.3 0.00 0.09 0.03 79 1017.6
20260505171530 60 248 0.0 2.6 0.00 0.09 0.03 81 1017.6
20260505170529 59 0.0 0.0 0.00 0.09 0.03 84 1017.6
20260505165530 59 278 0.9 3.5 0.00 0.09 0.03 85 1017.6
20260505164545 58 225 0.0 1.7 0.00 0.09 0.03 86 1017.6
20260505163521 57 0.0 0.0 0.00 0.09 0.03 89 1017.6
20260505162522 56 0.0 0.0 0.00 0.09 0.03 89 1017.6
20260505161543 56 348 1.7 4.3 0.00 0.09 0.03 90 1017.5
20260505160524 56 313 0.9 3.5 0.00 0.09 0.03 91 1017.4
20260505152527 56 0.0 2.6 0.00 0.09 0.03 94 1017.1
20260505151549 55 316 1.7 3.5 0.00 0.09 0.03 94 1017.1
20260505150529 55 340 1.7 3.5 0.00 0.09 0.03 95 1017.0
20260505140526 53 0.0 2.6 0.00 0.09 0.03 99 1016.7
20260505124517 53 0.0 0.0 0.00 0.09 0.03 99 1016.3
20260505123524 53 0.0 0.0 0.00 0.09 0.03 99 1016.3
20260505122520 53 0.0 0.0 0.00 0.09 0.03 99 1016.4
20260505121528 53 315 0.0 1.7 0.00 0.09 0.03 99 1016.4
20260505120528 53 0.0 0.9 0.00 0.09 0.03 99 1016.5
20260505115518 53 34 0.9 2.6 0.00 0.09 0.03 99 1016.6
20260505114533 53 0.0 1.7 0.00 0.09 0.03 99 1016.6
20260505113528 53 0.0 0.0 0.00 0.09 0.03 99 1016.6
20260505112529 53 58 0.9 2.6 0.00 0.09 0.03 99 1016.6
20260505111526 53 0.0 1.7 0.00 0.09 0.03 99 1016.6
20260505110527 53 0 0.0 1.7 0.00 0.09 0.03 99 1016.7